KE5AKC Weather Reports


Display with metric or nautical units.
time (UTC)temp
F
wind
direction
speed
MPH
gust
MPH
rain 1hr
in
rain 24hr
in
rain mn
in
humidity
%
barometer
mb
20260506095558 75 145 1.0 1.0 0.00 0.00 0.00 92 1008.3
20260506095054 75 183 0.0 1.0 0.00 0.00 0.00 91 1008.3
20260506094552 75 154 3.0 5.0 0.00 0.00 0.00 91 1008.3
20260506094049 75 221 2.0 2.0 0.00 0.00 0.00 92 1008.3
20260506093547 75 234 1.0 1.0 0.00 0.00 0.00 92 1008.3
20260506093044 75 180 3.0 3.0 0.00 0.00 0.00 92 1008.3
20260506092542 75 163 3.0 5.0 0.00 0.00 0.00 92 1008.3
20260506092038 75 182 3.0 6.0 0.00 0.00 0.00 92 1008.3
20260506091537 75 185 2.0 2.0 0.00 0.00 0.00 92 1008.3
20260506091034 75 144 2.0 2.0 0.00 0.00 0.00 91 1008.3
20260506090532 75 221 6.0 7.0 0.00 0.00 0.00 92 1008.0
20260506090028 75 226 1.0 1.0 0.00 0.00 0.00 91 1008.3
20260506085525 75 161 2.0 2.0 0.00 0.00 0.00 91 1008.3
20260506085021 76 178 3.0 5.0 0.00 0.00 0.00 91 1008.3
20260506084518 76 200 1.0 2.0 0.00 0.00 0.00 91 1008.6
20260506084014 76 136 3.0 3.0 0.00 0.00 0.00 91 1008.3
20260506083512 76 130 3.0 5.0 0.00 0.00 0.00 90 1008.6
20260506083009 76 97 3.0 3.0 0.00 0.00 0.00 90 1008.6
20260506082506 76 163 2.0 3.0 0.00 0.00 0.00 89 1008.6
20260506082001 76 152 3.0 3.0 0.00 0.00 0.00 89 1009.0
20260506081500 76 138 4.0 5.0 0.00 0.00 0.00 89 1008.6
20260506080957 77 143 3.0 6.0 0.00 0.00 0.00 88 1009.0
20260506080454 77 189 2.0 2.0 0.00 0.00 0.00 88 1009.0
20260506073437 76 205 1.0 2.0 0.00 0.00 0.00 88 1009.0
20260506072935 77 219 2.0 2.0 0.00 0.00 0.00 88 1009.0
20260506072432 77 280 3.0 5.0 0.00 0.00 0.00 88 1009.0
20260506071930 77 217 1.0 2.0 0.00 0.00 0.00 88 1009.0
20260506071428 77 250 1.0 1.0 0.00 0.00 0.00 87 1009.3
20260506070924 77 165 3.0 5.0 0.00 0.00 0.00 87 1009.7
20260506070421 77 165 3.0 3.0 0.00 0.00 0.00 87 1009.3
20260506062358 77 272 1.0 1.0 0.00 0.00 0.00 87 1009.3
20260506061854 77 237 0.0 1.0 0.00 0.00 0.00 87 1009.7
20260506061351 77 202 1.0 2.0 0.00 0.00 0.00 87 1009.3
20260506060849 77 163 2.0 2.0 0.00 0.00 0.00 87 1009.3
20260506060347 77 170 2.0 3.0 0.00 0.00 0.00 87 1009.3
20260506051319 77 161 3.0 3.0 0.00 0.00 0.00 86 1009.7
20260506050817 77 72 2.0 2.0 0.00 0.00 0.00 87 1009.3
20260506050314 77 200 3.0 6.0 0.00 0.00 0.00 87 1009.3
20260506044804 77 101 3.0 5.0 0.00 0.00 0.00 86 1009.7
20260506044302 77 131 1.0 1.0 0.00 0.00 0.00 86 1009.7
20260506043759 77 166 1.0 2.0 0.00 0.00 0.00 86 1009.7
20260506043256 77 212 3.0 5.0 0.00 0.00 0.00 86 1009.7
20260506042755 78 4 2.0 2.0 0.00 0.00 0.00 85 1009.3
20260506042253 78 187 3.0 3.0 0.00 0.00 0.00 85 1009.3
20260506041751 78 281 3.0 3.0 0.00 0.00 0.00 85 1009.3
20260506041247 78 304 2.0 5.0 0.00 0.00 0.00 84 1009.3
20260506040745 78 150 2.0 2.0 0.00 0.00 0.00 84 1009.3
20260506040242 78 156 3.0 5.0 0.00 0.00 0.00 84 1009.3
20260506035739 78 211 4.0 6.0 0.00 0.00 0.00 84 1009.3
20260506035235 78 151 7.0 9.0 0.00 0.00 0.00 84 1009.3
20260506034732 78 202 3.0 3.0 0.00 0.00 0.00 84 1009.3
20260506034230 78 163 3.0 3.0 0.00 0.00 0.00 84 1009.0
20260506033727 78 184 4.0 6.0 0.00 0.00 0.00 84 1009.0
20260506033224 78 180 2.0 2.0 0.00 0.00 0.00 84 1009.3
20260506032721 78 221 3.0 3.0 0.00 0.00 0.00 84 1009.0
20260506032218 78 156 1.0 1.0 0.00 0.00 0.00 84 1009.0
20260506031715 78 115 3.0 5.0 0.00 0.00 0.00 84 1009.0
20260506031212 78 210 5.0 7.0 0.00 0.00 0.00 84 1008.6
20260506030710 78 89 2.0 3.0 0.00 0.00 0.00 83 1009.0
20260506030207 78 164 5.0 7.0 0.00 0.00 0.00 83 1008.6
20260506025704 78 112 7.0 9.0 0.00 0.00 0.00 83 1008.6
20260506025200 78 146 1.0 3.0 0.00 0.00 0.00 83 1009.0
20260506024658 78 162 4.0 6.0 0.00 0.00 0.00 83 1008.6
20260506024154 78 260 4.0 6.0 0.00 0.00 0.00 83 1008.6
20260506023650 78 176 1.0 2.0 0.00 0.00 0.00 83 1008.6
20260506023147 78 148 1.0 1.0 0.00 0.00 0.00 82 1008.3
20260506022644 78 156 5.0 6.0 0.00 0.00 0.00 82 1008.3
20260506022142 79 164 3.0 3.0 0.00 0.00 0.00 82 1008.3
20260506021640 79 208 3.0 6.0 0.00 0.00 0.00 82 1008.0
20260506021137 79 117 1.0 2.0 0.00 0.00 0.00 82 1008.0
20260506020634 79 223 5.0 7.0 0.00 0.00 0.00 82 1008.0
20260506020131 79 226 2.0 2.0 0.00 0.00 0.00 81 1008.0
20260506015629 79 323 3.0 5.0 0.00 0.00 0.00 81 1007.6
20260506015126 79 148 1.0 1.0 0.00 0.00 0.00 81 1008.0
20260506014623 79 230 5.0 6.0 0.00 0.00 0.00 81 1008.0
20260506014118 79 195 3.0 5.0 0.00 0.00 0.00 81 1007.6
20260506013618 79 179 3.0 3.0 0.00 0.00 0.00 81 1007.6
20260506013113 79 219 2.0 3.0 0.00 0.00 0.00 81 1007.6
20260506012610 79 183 5.0 7.0 0.00 0.00 0.00 80 1007.6
20260506012106 79 166 2.0 2.0 0.00 0.00 0.00 80 1007.3
20260506011604 79 174 1.0 2.0 0.00 0.00 0.00 80 1007.3
20260506011100 79 213 4.0 6.0 0.00 0.00 0.00 79 1007.3
20260506010600 79 237 3.0 6.0 0.00 0.00 0.00 79 1007.3
20260506010055 79 86 3.0 5.0 0.00 0.00 0.00 79 1007.3
20260506005553 80 128 4.0 6.0 0.00 0.00 0.00 79 1007.3
20260506005049 80 278 1.0 2.0 0.00 0.00 0.00 79 1007.3
20260506004547 80 227 2.0 3.0 0.00 0.00 0.00 78 1007.3
20260506004043 80 152 5.0 8.0 0.00 0.00 0.00 78 1007.3
20260506003540 80 195 2.0 3.0 0.00 0.00 0.00 78 1007.3
20260506003036 80 161 3.0 3.0 0.00 0.00 0.00 78 1006.9
20260506002532 80 135 6.0 8.0 0.00 0.00 0.00 77 1006.9
20260506002028 80 189 6.0 8.0 0.00 0.00 0.00 77 1006.9
20260506001524 81 146 7.0 11.0 0.00 0.00 0.00 77 1006.9
20260506001022 81 219 2.0 3.0 0.00 0.00 0.00 77 1006.9
20260506000519 81 145 2.0 2.0 0.00 0.00 0.00 77 1006.9
20260506000016 81 223 3.0 3.0 0.00 0.00 0.00 77 1006.6
20260505235514 81 167 1.0 2.0 0.00 0.00 0.00 77 1006.9
20260505235011 81 198 3.0 5.0 0.00 0.00 0.00 77 1006.6
20260505234508 81 163 4.0 6.0 0.00 0.00 0.00 77 1006.6
20260505234004 81 236 2.0 2.0 0.00 0.00 0.00 77 1006.9
20260505233502 81 176 3.0 3.0 0.00 0.00 0.00 77 1007.3
20260505232959 81 179 2.0 2.0 0.00 0.00 0.00 77 1006.9
20260505232457 81 115 4.0 5.0 0.00 0.00 0.00 77 1006.6
20260505231954 82 151 4.0 6.0 0.00 0.00 0.00 76 1007.3
20260505231451 81 146 4.0 6.0 0.00 0.00 0.00 77 1007.3
20260505230950 81 102 4.0 6.0 0.00 0.00 0.00 77 1007.3
20260505230447 82 242 5.0 10.0 0.00 0.00 0.00 76 1006.9
20260505225943 82 148 5.0 7.0 0.00 0.00 0.00 76 1006.9
20260505225440 82 173 2.0 5.0 0.00 0.00 0.00 76 1006.9
20260505224936 83 259 5.0 8.0 0.00 0.00 0.00 73 1006.6
20260505224433 84 124 3.0 3.0 0.00 0.00 0.00 71 1006.9
20260505223930 84 147 7.0 10.0 0.00 0.00 0.00 69 1006.9
20260505223427 84 147 7.0 10.0 0.00 0.00 0.00 69 1006.9
20260505222923 84 217 0.0 1.0 0.00 0.00 0.00 69 1006.9
20260505222420 84 0 2.0 3.0 0.00 0.00 0.00 69 1006.9
20260505221916 84 260 3.0 3.0 0.00 0.00 0.00 69 1006.9
20260505221414 84 140 5.0 8.0 0.00 0.00 0.00 68 1006.9
20260505220910 84 195 3.0 3.0 0.00 0.00 0.00 69 1006.9
20260505220407 84 162 1.0 2.0 0.00 0.00 0.00 69 1006.9
20260505215905 84 99 4.0 7.0 0.00 0.00 0.00 68 1007.3
20260505215403 84 175 1.0 2.0 0.00 0.00 0.00 69 1006.9
20260505214901 84 232 2.0 3.0 0.00 0.00 0.00 68 1006.9
20260505214358 85 203 2.0 3.0 0.00 0.00 0.00 69 1006.9
20260505213855 84 178 3.0 3.0 0.00 0.00 0.00 69 1007.3
20260505213353 84 226 1.0 1.0 0.00 0.00 0.00 70 1007.3
20260505212849 84 207 3.0 7.0 0.00 0.00 0.00 70 1007.3
20260505212346 85 156 2.0 3.0 0.00 0.00 0.00 69 1007.3
20260505211842 84 143 1.0 2.0 0.00 0.00 0.00 70 1007.3
20260505211340 84 211 4.0 5.0 0.00 0.00 0.00 70 1007.6
20260505210836 85 111 5.0 7.0 0.00 0.00 0.00 69 1007.3
20260505210333 85 184 2.0 2.0 0.00 0.00 0.00 69 1007.3
20260505205830 85 251 1.0 1.0 0.00 0.00 0.00 68 1008.0
20260505205328 84 171 1.0 2.0 0.00 0.00 0.00 70 1007.6
20260505204824 84 245 2.0 3.0 0.00 0.00 0.00 69 1007.6
20260505204323 85 127 5.0 6.0 0.00 0.00 0.00 68 1008.0
20260505203820 85 291 3.0 5.0 0.00 0.00 0.00 67 1008.0
20260505203316 85 159 1.0 2.0 0.00 0.00 0.00 68 1008.0
20260505202812 86 69 3.0 3.0 0.00 0.00 0.00 67 1008.0
20260505202309 86 143 3.0 3.0 0.00 0.00 0.00 67 1008.3
20260505201806 86 169 6.0 7.0 0.00 0.00 0.00 66 1008.0
20260505201303 86 157 1.0 1.0 0.00 0.00 0.00 67 1008.0
20260505200801 85 44 3.0 5.0 0.00 0.00 0.00 68 1008.0
20260505200258 84 237 7.0 10.0 0.00 0.00 0.00 69 1008.3
20260505195753 84 225 3.0 3.0 0.00 0.00 0.00 71 1008.3
20260505195251 85 195 4.0 6.0 0.00 0.00 0.00 69 1008.3
20260505194748 85 244 2.0 3.0 0.00 0.00 0.00 69 1008.3
20260505194244 84 262 3.0 3.0 0.00 0.00 0.00 70 1008.3
20260505193740 84 270 5.0 7.0 0.00 0.00 0.00 70 1008.3
20260505193238 84 311 3.0 5.0 0.00 0.00 0.00 70 1008.6
20260505192736 83 264 0.0 0.0 0.00 0.00 0.00 73 1008.6
20260505192233 83 195 3.0 3.0 0.00 0.00 0.00 72 1008.6
20260505191731 82 137 1.0 1.0 0.00 0.00 0.00 73 1008.6
20260505191230 82 206 0.0 1.0 0.00 0.00 0.00 74 1009.0
20260505190726 82 145 2.0 3.0 0.00 0.00 0.00 73 1009.3
20260505190225 82 153 5.0 8.0 0.00 0.00 0.00 73 1009.3
20260505185722 83 222 3.0 3.0 0.00 0.00 0.00 73 1009.3
20260505185219 83 136 5.0 9.0 0.00 0.00 0.00 73 1009.0
20260505184715 83 225 1.0 1.0 0.00 0.00 0.00 73 1009.3
20260505184212 83 234 5.0 6.0 0.00 0.00 0.00 73 1009.0
20260505183709 83 257 1.0 2.0 0.00 0.00 0.00 73 1009.3
20260505183207 82 315 2.0 2.0 0.00 0.00 0.00 74 1009.3
20260505182702 82 153 1.0 2.0 0.00 0.00 0.00 73 1009.3
20260505182200 82 186 3.0 6.0 0.00 0.00 0.00 74 1009.0
20260505181656 82 88 1.0 1.0 0.00 0.00 0.00 73 1009.0
20260505181154 82 259 2.0 3.0 0.00 0.00 0.00 74 1009.0
20260505180650 82 268 3.0 5.0 0.00 0.00 0.00 74 1009.0
20260505180147 82 231 5.0 8.0 0.00 0.00 0.00 74 1009.0
20260505175643 81 143 2.0 2.0 0.00 0.00 0.00 76 1009.3
20260505175139 81 231 4.0 6.0 0.00 0.00 0.00 75 1009.3
20260505174636 81 256 3.0 3.0 0.00 0.00 0.00 75 1009.3
20260505174132 81 220 3.0 3.0 0.00 0.00 0.00 74 1009.3
20260505173629 81 340 2.0 2.0 0.00 0.00 0.00 75 1009.7
20260505173126 81 133 1.0 2.0 0.00 0.00 0.00 75 1010.0
20260505172624 81 337 2.0 2.0 0.00 0.00 0.00 76 1009.7
20260505172120 80 148 2.0 2.0 0.00 0.00 0.00 76 1009.7
20260505171615 80 116 5.0 8.0 0.00 0.00 0.00 76 1010.0
20260505171112 80 190 1.0 3.0 0.00 0.00 0.00 76 1009.3
20260505170609 80 267 1.0 1.0 0.00 0.00 0.00 78 1009.7
20260505170105 80 290 0.0 0.0 0.00 0.00 0.00 78 1009.7
20260505165600 79 241 1.0 2.0 0.00 0.00 0.00 80 1009.7
20260505165056 79 284 0.0 0.0 0.00 0.00 0.00 80 1009.7
20260505164552 79 6 0.0 1.0 0.00 0.00 0.00 80 1010.0
20260505164050 79 270 0.0 1.0 0.00 0.00 0.00 80 1009.7
20260505163549 79 234 1.0 1.0 0.00 0.00 0.00 79 1009.7
20260505163045 79 76 0.0 1.0 0.00 0.00 0.00 79 1009.7
20260505162538 79 217 2.0 3.0 0.00 0.00 0.00 79 1009.7
20260505162035 79 184 2.0 5.0 0.00 0.00 0.00 79 1009.7
20260505161532 79 149 1.0 2.0 0.00 0.00 0.00 80 1009.7
20260505161029 78 147 0.0 1.0 0.00 0.00 0.00 80 1010.0
20260505160527 78 205 0.0 1.0 0.00 0.00 0.00 79 1009.7
20260505152957 79 155 5.0 6.0 0.00 0.00 0.00 77 1009.3
20260505152455 79 129 2.0 2.0 0.00 0.00 0.00 79 1009.3
20260505151950 78 164 3.0 3.0 0.00 0.00 0.00 80 1009.3
20260505151445 78 120 0.0 1.0 0.00 0.00 0.00 81 1009.7
20260505150943 78 258 1.0 1.0 0.00 0.00 0.00 81 1009.7
20260505150440 77 287 2.0 3.0 0.00 0.00 0.00 81 1009.3
20260505140409 76 164 6.0 8.0 0.00 0.00 0.00 82 1009.3
20260505124817 75 138 2.0 3.0 0.00 0.00 0.00 84 1009.0
20260505124314 74 241 1.0 2.0 0.00 0.00 0.00 84 1009.0
20260505123810 74 150 3.0 5.0 0.00 0.00 0.00 85 1009.0
20260505123307 74 314 0.0 0.0 0.00 0.00 0.00 85 1009.0
20260505122803 74 258 1.0 1.0 0.00 0.00 0.00 85 1009.0
20260505122301 74 243 3.0 3.0 0.00 0.00 0.00 85 1009.0
20260505121757 74 280 2.0 3.0 0.00 0.00 0.00 85 1008.6
20260505121254 74 189 2.0 2.0 0.00 0.00 0.00 85 1008.6
20260505120750 74 220 3.0 3.0 0.00 0.00 0.00 85 1008.6
20260505120247 74 124 3.0 7.0 0.00 0.00 0.00 85 1008.6
20260505115745 74 347 1.0 2.0 0.00 0.00 0.00 85 1008.6
20260505115243 73 206 3.0 5.0 0.00 0.00 0.00 85 1009.0
20260505114740 73 150 1.0 2.0 0.00 0.00 0.00 85 1009.0
20260505114236 73 216 1.0 2.0 0.00 0.00 0.00 85 1009.0
20260505113733 73 224 1.0 2.0 0.00 0.00 0.00 85 1008.6
20260505113230 73 209 1.0 1.0 0.00 0.00 0.00 84 1008.6
20260505112726 73 226 1.0 2.0 0.00 0.00 0.00 84 1008.3
20260505112224 73 230 1.0 1.0 0.00 0.00 0.00 84 1008.3
20260505111723 73 264 0.0 1.0 0.00 0.00 0.00 84 1008.3
20260505111220 73 154 5.0 7.0 0.00 0.00 0.00 84 1008.3
20260505110715 73 263 1.0 2.0 0.00 0.00 0.00 84 1008.6
20260505110214 73 284 1.0 1.0 0.00 0.00 0.00 84 1008.3
20260505102149 73 159 4.0 5.0 0.00 0.00 0.00 85 1008.6
20260505101647 73 179 1.0 2.0 0.00 0.00 0.00 85 1008.6
20260505101143 73 273 0.0 1.0 0.00 0.00 0.00 85 1009.0
20260505100639 73 212 3.0 5.0 0.00 0.00 0.00 85 1009.0
20260505100137 73 223 0.0 1.0 0.00 0.00 0.00 85 1009.0